EW4164 Weather Reports


time (UTC)temp
C
wind
direction
speed
KPH
gust
KPH
rain 1hr
cm
rain 24hr
cm
rain mn
cm
humidity
%
barometer
mb
20260507060232 9 234 0.0 1.6 0.03 0.28 0.05 94 1013.6
20260507060122 9 234 0.0 1.6 0.03 0.33 0.05 94 1014.0
20260507054523 8 221 0.0 3.2 0.03 0.30 0.03 94 1013.9
20260507054215 9 215 1.6 1.6 0.03 0.25 0.03 94 1013.4
20260507052218 9 195 0.0 0.0 0.03 0.25 0.03 94 1013.2
20260507051526 8 195 0.0 3.2 0.03 0.30 0.03 94 1013.6
20260507051223 9 195 0.0 3.2 0.03 0.25 0.03 94 1013.1
20260507050216 9 195 0.0 3.2 0.03 0.25 0.03 94 1013.0
20260507050037 8 198 0.0 3.2 0.03 0.30 0.03 94 1013.3
20260507045218 9 180 1.6 3.2 0.00 0.23 0.00 94 1012.8
20260507044504 8 178 0.0 3.2 0.00 0.33 0.00 94 1013.2
20260507044220 9 178 0.0 3.2 0.00 0.23 0.00 94 1012.7
20260507043210 9 180 0.0 1.6 0.00 0.23 0.00 94 1012.6
20260507043042 8 180 0.0 1.6 0.00 0.33 0.00 94 1012.9
20260507042220 8 180 0.0 0.0 0.00 0.23 0.00 94 1012.5
20260507041555 8 180 0.0 0.0 0.00 0.33 0.00 94 1012.8
20260507041220 8 180 0.0 1.6 0.00 0.23 0.00 94 1012.3
20260507040229 8 180 0.0 1.6 0.00 0.23 0.00 94 1012.3
20260507040045 8 180 0.0 3.2 0.00 0.33 0.00 94 1012.6
20260507035217 8 233 0.0 3.2 0.00 0.23 0.00 94 1012.3
20260507034614 8 233 0.0 3.2 0.00 0.51 0.00 94 1012.6
20260507034218 8 233 1.6 3.2 0.00 0.23 0.00 94 1012.2
20260507033227 9 218 1.6 1.6 0.00 0.23 0.00 94 1012.1
20260507033004 8 218 1.6 3.2 0.00 0.51 0.00 94 1012.5
20260507031628 8 235 0.0 1.6 0.00 0.51 0.00 94 1012.5
20260507031217 9 235 1.6 3.2 0.00 0.23 0.00 93 1012.0
20260507030209 9 229 1.6 4.8 0.00 0.25 0.00 93 1012.0
20260507030054 8 219 1.6 4.8 0.00 0.51 0.00 93 1012.3
20260507025247 9 234 1.6 3.2 0.00 0.25 0.00 93 1011.9
20260507024559 8 204 0.0 4.8 0.00 0.51 0.00 93 1012.2
20260507024212 9 205 1.6 3.2 0.00 0.25 0.00 93 1011.9
20260507023212 9 207 1.6 3.2 0.00 0.25 0.00 93 1011.8
20260507023058 8 191 1.6 4.8 0.00 0.51 0.00 93 1012.1
20260507022220 9 270 1.6 3.2 0.00 0.25 0.00 94 1011.7
20260507021549 9 195 0.0 6.4 0.00 0.51 0.00 94 1012.0
20260507021223 9 202 1.6 3.2 0.00 0.25 0.00 94 1011.6
20260507020206 9 312 3.2 6.4 0.00 0.25 0.00 94 1011.5
20260507020042 9 292 1.6 6.4 0.00 0.51 0.00 94 1011.8
20260507015213 9 190 3.2 6.4 0.00 0.25 0.00 94 1011.4
20260507014506 9 218 1.6 6.4 0.00 0.51 0.00 94 1011.6
20260507013226 10 248 3.2 1.6 0.00 0.25 0.00 94 1011.2
20260507013106 -17 0.0 0.0 0.00 0.51 0.00 1011.4
20260507012206 10 248 3.2 4.8 0.00 0.25 0.00 94 1011.0
20260507011525 10 248 1.6 6.4 0.00 0.51 0.00 94 1011.2
20260507011224 10 237 3.2 4.8 0.00 0.25 0.00 94 1011.0
20260507010232 10 265 3.2 6.4 0.00 0.25 0.00 94 1010.9
20260507010031 10 239 1.6 6.4 0.00 0.51 0.00 94 1011.1
20260507005219 10 236 1.6 4.8 0.00 0.25 0.00 94 1010.9
20260507004540 10 173 1.6 4.8 0.00 0.51 0.00 94 1011.0
20260507003221 10 209 1.6 3.2 0.00 0.25 0.00 94 1010.7
20260507003049 -17 0.0 0.0 0.00 0.51 0.00 1010.9
20260507002212 10 209 1.6 3.2 0.00 0.25 0.00 94 1010.7
20260507001533 10 199 0.0 3.2 0.00 0.51 0.00 94 1010.9
20260507000207 10 281 1.6 4.8 0.00 0.25 0.00 94 1010.6
20260507000037 10 192 0.0 4.8 0.00 0.51 0.00 94 1010.8
20260506234534 10 240 1.6 6.4 0.00 0.51 0.00 94 1010.7
20260506234220 10 293 1.6 4.8 0.00 0.25 0.00 94 1010.5
20260506233205 10 236 1.6 4.8 0.00 0.25 0.00 94 1010.5
20260506233023 10 206 1.6 6.4 0.00 0.51 0.00 94 1010.7
20260506232213 11 238 1.6 4.8 0.00 0.25 0.00 94 1010.5
20260506231528 10 271 1.6 4.8 0.00 0.51 0.00 94 1010.6
20260506230049 -17 0.0 0.0 0.00 0.51 0.00 1010.6
20260506224536 -17 0.0 0.0 0.00 0.53 0.00 1010.5
20260506223015 -17 0.0 0.0 0.00 0.53 0.00 1010.4
20260506221502 -17 0.0 0.0 0.00 0.53 0.00 1010.2
20260506220140 -17 0.0 0.0 0.00 0.53 0.00 1010.2
20260506214540 -17 0.0 0.0 0.00 0.53 0.23 1010.1
20260506213058 -17 0.0 0.0 0.00 0.53 0.23 1009.9
20260506211531 -17 0.0 0.0 0.00 0.53 0.23 1009.8
20260506210011 -17 0.0 0.0 0.00 0.53 0.23 1009.6
20260506204547 -17 0.0 0.0 0.00 0.53 0.23 1009.4
20260506203009 -17 0.0 0.0 0.00 0.53 0.23 1009.3
20260506201547 -17 0.0 0.0 0.00 0.53 0.23 1009.2
20260506200036 -17 0.0 0.0 0.00 0.53 0.23 1009.1
20260506194503 -17 0.0 0.0 0.00 0.53 0.23 1008.9
20260506193047 -17 0.0 0.0 0.00 0.53 0.23 1008.9
20260506191559 -17 0.0 0.0 0.00 0.53 0.23 1008.4
20260506190216 11 175 6.4 11.3 0.00 0.33 0.25 93 1008.0
20260506190037 -17 0.0 0.0 0.03 0.53 0.23 1008.2
20260506185223 11 175 6.4 12.9 0.00 0.33 0.25 93 1007.9
20260506184627 11 189 6.4 19.3 0.03 0.53 0.23 93 1008.1
20260506184217 12 161 4.8 11.3 0.00 0.36 0.25 93 1007.9
20260506183217 12 180 4.8 11.3 0.00 0.41 0.25 93 1007.8
20260506183006 12 163 4.8 11.3 0.03 0.53 0.23 93 1007.9
20260506182224 12 211 4.8 11.3 0.00 0.43 0.23 92 1007.7
20260506181544 12 169 4.8 12.9 0.03 0.53 0.23 92 1007.8
20260506181212 12 233 3.2 11.3 0.00 0.43 0.23 92 1007.6
20260506180041 -17 0.0 0.0 0.00 0.51 0.23 1007.7
20260506174529 -17 0.0 0.0 0.05 0.51 0.23 1007.6
20260506173038 -17 0.0 0.0 0.23 0.51 0.23 1007.3
20260506172213 13 198 3.2 1.6 0.23 0.48 0.23 88 1007.1
20260506171528 -17 0.0 0.0 0.23 0.51 0.23 1007.1
20260506171213 13 198 3.2 1.6 0.23 0.48 0.23 88 1007.0
20260506170218 13 179 3.2 16.1 0.23 0.48 0.23 88 1006.9
20260506165212 13 155 4.8 16.1 0.20 0.46 0.23 88 1006.8
20260506164525 13 114 4.8 14.5 0.15 0.46 0.15 88 1007.0
20260506164212 13 194 4.8 17.7 0.08 0.33 0.10 87 1006.8
20260506163213 14 159 6.4 17.7 0.00 0.25 0.03 84 1006.6
20260506163107 14 208 4.8 19.3 0.00 0.30 0.00 84 1006.8
20260506162227 15 208 6.4 17.7 0.00 0.25 0.03 81 1006.5
20260506161506 15 190 6.4 17.7 0.00 0.30 0.00 79 1006.7
20260506161220 15 154 4.8 17.7 0.00 0.25 0.03 79 1006.5
20260506160251 15 160 4.8 0.0 0.00 0.25 0.03 77 1006.5
20260506160050 15 160 4.8 12.9 0.00 0.30 0.00 77 1006.6
20260506154547 15 247 4.8 17.7 0.00 0.30 0.00 74 1006.6